Overview Statistics Trail Chart Weather Telemetry Raw packets
 

This is the latest recevied weather packets stored in our database for station/object WX5RP. If no packets are shown the sender has not sent any weather packets the latest 10 day(s).

<< 18 19 20 21 22 23 24 >>
Time Temp. Humidity Pressure Rain* Wind** Luminosity Snow
1777714517 4.44° C 64% 1015.4 hPa 0 mm - 0 W/m² -
1777713917 5.56° C 66% 1015.8 hPa 0 mm - 0 W/m² -
1777713317 5° C 67% 1015.5 hPa 0 mm - 0 W/m² -
1777712718 5° C 67% 1015.6 hPa 0 mm - 0 W/m² -
1777712117 5° C 66% 1015.6 hPa 0 mm - 0 W/m² -
1777711517 5° C 64% 1015.5 hPa 0 mm - 0 W/m² -
1777710917 5° C 65% 1015.5 hPa 0 mm - 0 W/m² -
1777710316 5° C 66% 1015.5 hPa 0 mm - 0 W/m² -
1777709717 6.11° C 70% 1015.5 hPa 0 mm - 0 W/m² -
1777709118 6.11° C 69% 1015.8 hPa 0 mm - 0 W/m² -
1777708517 6.67° C 68% 1016.3 hPa 0 mm - 0 W/m² -
1777707917 7.22° C 67% 1016.3 hPa 0 mm - 0 W/m² -
1777707317 7.78° C 60% 1015.8 hPa 0 mm - 0 W/m² -
1777706716 8.89° C 59% 1015.9 hPa 0 mm - 0 W/m² -
1777706116 9.44° C 60% 1015.9 hPa 0 mm - 0 W/m² -
1777705516 7.22° C 68% 1015.9 hPa 0 mm - 0 W/m² -
1777704916 7.22° C 61% 1015.6 hPa 0 mm - 0 W/m² -
1777704316 8.89° C 53% 1015.8 hPa 0 mm - 0 W/m² -
1777703716 8.89° C 49% 1015.5 hPa 0 mm - 0 W/m² -
1777703116 8.33° C 53% 1015.5 hPa 0 mm - 0 W/m² -
1777702516 8.89° C 53% 1015.8 hPa 0 mm - 0 W/m² -
1777701917 11.11° C 44% 1015.4 hPa 0 mm - 0 W/m² -
1777701316 11.67° C 47% 1015.7 hPa 0 mm - 0 W/m² -
1777700716 11.67° C 51% 1015.7 hPa 0 mm - 0 W/m² -
1777700115 11.11° C 40% 1015.8 hPa 0 mm - 0 W/m² -

* Rain latest hour (hover to see other rain measurements)
** Current wind speed in m/s (hover to see current wind gust speed)